Weather reports worldwide

Advertisment
Lille, France (7015): temperature & dewpoint: 20.09.2018 05:00:00 - 26.09.2018 05:00:00 (CEST)Lille, France (7015): temperature 5cm: 20.09.2018 05:00:00 - 26.09.2018 05:00:00 (CEST)Lille, France (7015): temperature -20cm & temperature -100cm: 20.09.2018 05:00:00 - 26.09.2018 05:00:00 (CEST)Lille, France (7015): wind speed & gusts: 20.09.2018 05:00:00 - 26.09.2018 05:00:00 (CEST)Lille, France (7015): wind direction: 20.09.2018 05:00:00 - 26.09.2018 05:00:00 (CEST)Lille, France (7015): reduced air pressure: 20.09.2018 05:00:00 - 26.09.2018 05:00:00 (CEST)Lille, France (7015): visibility: 20.09.2018 05:00:00 - 26.09.2018 05:00:00 (CEST)Lille, France (7015): sunshine duration: 20.09.2018 05:00:00 - 26.09.2018 05:00:00 (CEST)Lille, France (7015): precipitation: 20.09.2018 05:00:00 - 26.09.2018 05:00:00 (CEST)
Date & Time tt [°C] td [°C] tt 5cm [°C] tt -20cm [°C] tt -100cm [°C] ff [km/h] ff [kn] fx [km/h] fx [kn] dd ppp [hPa] vv [km] sd [min] rr [mm]
26.09.2018 05:00:00 6,8 5,3 2,5 12,1 17,1 3 1 5 3 E 1034,9 12 0 0,0
26.09.2018 04:00:00 6,5 4,8 2,4 12,3 17,1 5 3 6 3 ENE 1035,0 15 0 0,0
26.09.2018 03:00:00 7,0 5,3 2,6 12,6 17,1 2 1 6 3 ESE 1035,3 22 0 0,0
26.09.2018 02:00:00 8,3 5,4 3,6 12,9 17,1 3 2 5 3 ESE 1035,3 24 0 0,0
26.09.2018 01:00:00 8,2 5,3 3,7 13,2 17,1 2 1 5 3 ESE 1035,8 37 0 0,0
26.09.2018 00:00:00 8,4 5,0 4,3 13,5 17,1 4 2 6 3 ENE 1036,2 32 0 0,0
25.09.2018 23:00:00 9,7 5,3 6,2 13,8 17,2 5 3 6 4 E 1036,5 43 0 0,0
25.09.2018 22:00:00 11,3 5,6 7,9 14,2 17,1 7 4 16 8 NE 1036,7 54 0 0,0
25.09.2018 21:00:00 11,2 5,7 6,1 14,6 17,2 9 5 13 7 NE 1037,0 58 0 0,0
25.09.2018 20:00:00 13,0 5,9 10,0 15,0 17,2 8 4 10 6 NE 1036,6 60 0 0,0
25.09.2018 19:00:00 14,9 5,1 14,0 15,2 17,2 8 5 16 9 E 1036,2 39 28 0,0
25.09.2018 18:00:00 15,7 4,7 19,7 15,2 17,2 8 5 22 12 E 1036,4 34 60 0,0
25.09.2018 17:00:00 16,0 4,7 20,3 15,0 17,2 10 6 22 12 E 1037,0 29 60 0,0
25.09.2018 16:00:00 15,7 4,7 17,7 14,6 17,2 13 7 24 13 ENE 1037,7 32 50 0,0
25.09.2018 15:00:00 16,3 5,3 17,8 13,9 17,2 11 6 27 14 ESE 1038,3 30 52 0,0
25.09.2018 14:00:00 15,4 4,4 20,7 13,2 17,2 9 5 34 18 ENE 1039,0 48 60 0,0
25.09.2018 13:00:00 15,0 5,8 19,7 12,4 17,2 7 4 19 10 ENE 1039,3 48 60 0,0
25.09.2018 12:00:00 14,3 6,4 18,2 11,7 17,2 7 4 19 10 SE 1039,6 34 60 0,0
25.09.2018 11:00:00 12,6 6,8 15,3 11,3 17,2 5 3 9 5 ESE 1039,9 17 58 0,0
25.09.2018 10:00:00 8,7 6,8 7,9 11,0 17,2 2 1 7 4 S 1039,7 16 60 0,2
25.09.2018 09:00:00 6,5 6,4 2,4 11,1 17,3 0 0 8 4 N 1039,1 9 33 0,0
25.09.2018 08:00:00 3,4 2,8 0,7 11,3 17,3 0 0 6 3 N 1038,8 6 0 0,0
25.09.2018 07:00:00 4,3 3,6 0,5 11,5 17,3 3 1 5 3 ESE 1038,7 6 0 0,0
25.09.2018 06:00:00 4,6 4,0 0,8 11,7 17,3 2 1 6 3 N 1038,5 14 0 0,0
25.09.2018 05:00:00 5,1 4,2 1,3 11,9 17,3 7 4 8 5 WNW 1038,6 12 0 0,0
25.09.2018 04:00:00 5,0 4,1 0,6 12,2 17,3 4 2 7 4 W 1038,6 15 0 0,0
25.09.2018 03:00:00 5,1 4,1 0,6 12,5 17,4 2 1 9 5 NNW 1038,7 9 0 0,0
25.09.2018 02:00:00 6,0 4,5 1,4 12,8 17,4 3 2 4 2 S 1038,8 9 0 0,0
25.09.2018 01:00:00 7,6 5,1 2,5 13,1 17,4 3 1 13 7 SSE 1038,8 16 0 0,0
25.09.2018 00:00:00 8,1 5,0 4,2 13,4 17,4 8 4 11 6 N 1039,0 21 0 0,0
24.09.2018 23:00:00 8,5 5,1 5,6 13,8 17,4 4 2 11 6 N 1038,6 7 0 0,0
24.09.2018 22:00:00 9,7 4,9 6,4 14,1 17,4 9 5 15 8 NNW 1038,2 60 0 0,0
24.09.2018 21:00:00 10,6 4,7 8,7 14,4 17,4 12 6 17 9 NNW 1037,5 60 0 0,0
24.09.2018 20:00:00 11,8 4,5 10,1 14,8 17,4 11 6 25 14 NNW 1037,2 60 0 0,0
24.09.2018 19:00:00 13,9 3,9 13,1 15,1 17,4 18 10 29 16 NNW 1036,6 18 39 0,0
24.09.2018 18:00:00 15,5 4,2 14,5 15,2 17,4 17 9 32 17 N 1036,2 48 50 0,0
24.09.2018 17:00:00 14,5 3,6 14,6 15,2 17,5 19 11 34 19 NW 1036,4 49 36 0,0
24.09.2018 16:00:00 16,0 3,4 15,5 15,0 17,4 17 9 36 19 NW 1036,5 31 42 0,0
24.09.2018 15:00:00 16,4 5,9 15,4 14,6 17,5 18 10 36 20 NW 1036,5 60 50 0,0
24.09.2018 14:00:00 16,2 4,9 15,5 14,1 17,5 20 11 33 18 NW 1036,7 30 44 0,0
24.09.2018 13:00:00 16,0 6,1 18,9 13,6 17,5 17 9 36 20 NW 1036,5 33 58 0,0
24.09.2018 12:00:00 14,6 6,9 16,5 13,2 17,5 19 10 33 18 NW 1036,5 40 55 0,0
24.09.2018 11:00:00 13,4 8,0 16,8 12,9 17,5 15 8 23 12 NW 1036,0 27 60 0,0
24.09.2018 10:00:00 11,2 8,6 10,2 12,8 17,5 11 6 18 10 WNW 1035,7 36 60 0,0
24.09.2018 09:00:00 9,0 7,6 8,1 12,9 17,5 9 5 16 9 W 1034,9 36 35 0,0
24.09.2018 08:00:00 8,4 7,3 7,5 13,1 17,5 13 7 17 9 W 1034,2 34 0 0,0
24.09.2018 07:00:00 9,3 8,2 8,1 13,2 17,5 15 8 23 12 W 1033,4 17 0 0,2
24.09.2018 06:00:00 8,5 7,6 7,7 13,3 17,5 12 7 18 10 W 1032,8 51 0 0,0
24.09.2018 05:00:00 8,9 7,8 8,5 13,4 17,6 10 5 16 9 WSW 1032,0 57 0 0,0
24.09.2018 04:00:00 9,0 7,9 8,3 13,4 17,6 7 4 12 6 WSW 1031,4 50 0 0,0
24.09.2018 03:00:00 8,8 7,7 6,7 13,5 17,6 11 6 16 9 W 1030,7 60 0 0,0
24.09.2018 02:00:00 8,8 7,2 6,9 13,6 17,6 10 5 18 10 WNW 1029,7 60 0 0,2
24.09.2018 01:00:00 9,1 7,5 8,1 13,8 17,6 11 6 19 10 NW 1028,9 53 0 0,0
24.09.2018 00:00:00 9,7 7,6 8,4 14,0 17,6 11 6 23 12 NW 1027,6 57 0 0,0
23.09.2018 23:00:00 8,9 7,3 6,9 14,2 17,6 9 5 15 8 WNW 1026,3 28 0 0,0
23.09.2018 22:00:00 10,2 9,0 9,8 14,3 17,6 6 3 18 10 NW 1025,0 28 0 0,0
23.09.2018 21:00:00 10,2 9,0 10,0 14,4 17,6 13 7 20 11 W 1023,5 31 0 0,2
23.09.2018 20:00:00 10,2 8,8 9,8 14,6 17,7 11 6 39 21 NNW 1021,7 19 0 0,0
23.09.2018 19:00:00 10,7 9,0 10,5 14,8 17,6 21 12 42 23 NNW 1020,2 40 0 0,0
23.09.2018 18:00:00 10,7 9,3 10,5 14,9 17,6 22 12 50 27 NNW 1018,5 40 0 0,6
23.09.2018 17:00:00 11,2 10,1 11,1 15,1 17,7 32 17 76 41 NNW 1016,3 11 0 3,2
23.09.2018 16:00:00 13,4 10,6 13,4 14,9 17,6 15 8 32 17 NW 1014,3 39 0 0,0
23.09.2018 15:00:00 12,9 11,3 12,7 14,8 17,7 19 11 36 19 NNW 1013,0 35 0 0,0
23.09.2018 14:00:00 12,4 11,8 12,3 14,7 17,7 21 11 36 20 NNW 1011,0 17 0 1,8
23.09.2018 13:00:00 12,0 11,5 12,1 14,7 17,7 28 15 43 23 N 1010,3 4,6 0 8,7
23.09.2018 12:00:00 12,4 11,9 12,4 14,8 17,7 10 5 15 8 ENE 1008,5 4,9 0 2,6
23.09.2018 11:00:00 12,2 11,7 12,3 14,7 17,7 5 3 15 8 E 1010,1 2,6 0 1,2
23.09.2018 10:00:00 12,1 11,8 12,0 14,6 17,7 10 5 17 9 ENE 1010,9 3,9 2 0,2
23.09.2018 09:00:00 11,8 11,5 11,7 14,6 17,7 10 5 13 7 NNE 1011,4 2,5 0 0,2
23.09.2018 08:00:00 11,7 11,4 11,7 14,5 17,7 7 4 14 7 NNE 1011,7 4,5 0 0,2
23.09.2018 07:00:00 11,7 11,4 11,7 14,6 17,7 9 5 15 8 N 1011,8 3,5 0 0,4
23.09.2018 06:00:00 11,7 11,4 11,6 14,5 17,7 6 3 13 7 NNE 1011,4 7 0 0,0
23.09.2018 05:00:00 11,7 11,4 11,4 14,5 17,7 8 4 18 10 NNE 1011,7 6 0 0,6
23.09.2018 04:00:00 11,5 11,2 11,2 14,6 17,8 11 6 21 11 NE 1011,8 1,7 0 1,2
23.09.2018 03:00:00 11,3 11,0 11,1 14,6 17,7 14 8 22 12 ENE 1012,1 2,7 0 2,0
23.09.2018 02:00:00 11,2 10,9 10,9 14,7 17,8 15 8 29 16 E 1012,7 1,9 0 1,0
23.09.2018 01:00:00 11,0 10,5 10,8 14,9 17,7 17 9 31 17 E 1013,6 2,3 0 1,8
23.09.2018 00:00:00 10,9 10,4 10,7 15,0 17,8 20 11 32 17 E 1014,7 2,5 0 1,0
22.09.2018 23:00:00 10,8 10,3 10,7 15,2 17,8 16 9 24 13 E 1015,8 3,4 0 3,4
22.09.2018 22:00:00 11,0 10,5 10,7 15,5 17,8 13 7 20 11 ESE 1016,7 3,1 0 1,3
22.09.2018 21:00:00 10,8 10,2 10,5 15,6 17,8 6 3 11 6 SSE 1017,8 2,5 0 1,6
22.09.2018 20:00:00 11,1 10,2 10,8 15,8 17,8 9 5 12 7 SE 1018,5 3,7 0 0,4
22.09.2018 19:00:00 11,6 10,5 11,2 15,9 17,8 5 3 12 7 SE 1018,6 14 0 0,6
22.09.2018 18:00:00 11,9 10,1 11,3 16,0 17,8 9 5 24 13 SW 1019,4 20 0 1,8
22.09.2018 17:00:00 12,8 10,0 12,0 16,1 17,8 0 0 12 7 N 1019,8 8 0 0,6
22.09.2018 16:00:00 13,5 9,2 13,4 16,1 17,8 9 5 18 10 W 1020,3 48 0 0,2
22.09.2018 15:00:00 13,8 8,8 14,7 16,1 17,8 14 7 27 15 WNW 1021,0 42 0 0,0
22.09.2018 14:00:00 14,3 8,9 14,7 16,0 17,8 19 10 42 23 W 1021,5 38 0 0,0
22.09.2018 13:00:00 15,6 9,3 15,9 15,6 17,8 23 12 35 19 W 1020,9 28 14 0,0
22.09.2018 12:00:00 14,1 10,5 13,5 15,3 17,8 16 9 26 14 SW 1021,2 34 3 0,0
22.09.2018 11:00:00 13,8 10,8 11,4 14,9 17,8 19 10 29 15 SW 1021,5 20 18 0,8
22.09.2018 10:00:00 12,7 10,2 11,7 14,7 17,8 13 7 21 12 SSW 1020,9 19 37 0,2
22.09.2018 09:00:00 11,8 10,0 10,7 14,6 17,8 12 7 27 15 SSW 1021,1 35 24 0,4
22.09.2018 08:00:00 11,3 9,0 10,1 14,6 17,8 14 8 22 12 SSW 1020,9 49 0 0,0
22.09.2018 07:00:00 10,7 8,8 9,9 14,7 17,8 10 5 16 9 S 1020,8 46 0 0,0
22.09.2018 06:00:00 11,0 9,1 10,1 14,8 17,8 10 6 19 10 S 1020,5 42 0 0,0
22.09.2018 05:00:00 10,8 9,1 9,6 14,9 17,8 14 7 20 11 S 1020,4 42 0 0,0
22.09.2018 04:00:00 10,3 8,6 8,2 15,1 17,8 9 5 16 9 S 1020,5 37 0 0,0
22.09.2018 03:00:00 10,1 8,4 8,8 15,3 17,8 9 5 16 8 S 1020,3 39 0 0,0
22.09.2018 02:00:00 11,4 8,6 10,4 15,5 17,8 14 7 20 11 SW 1020,1 44 0 0,0
22.09.2018 01:00:00 11,8 8,8 10,8 15,8 17,8 13 7 29 15 SW 1019,5 37 0 0,0
22.09.2018 00:00:00 12,9 8,8 12,1 16,0 17,8 20 11 29 16 SW 1019,2 42 0 0,0
21.09.2018 23:00:00 13,6 8,4 12,9 16,2 17,8 21 11 35 19 SW 1018,3 41 0 0,0
21.09.2018 22:00:00 13,9 8,1 13,2 16,5 17,8 23 12 47 26 SW 1017,6 47 0 0,0
21.09.2018 21:00:00 14,4 7,2 13,7 16,9 17,8 29 15 45 24 SW 1016,6 51 0 0,0
21.09.2018 20:00:00 15,1 6,6 14,6 17,2 17,8 32 18 59 32 WSW 1015,7 52 0 0,0
21.09.2018 19:00:00 15,7 5,9 15,4 17,4 17,8 41 22 66 36 WSW 1014,9 9 35 0,0
21.09.2018 18:00:00 16,8 4,8 16,9 17,6 17,8 44 24 72 39 WSW 1014,4 17 26 0,0
21.09.2018 17:00:00 17,4 4,7 17,6 17,5 17,8 44 24 64 35 WSW 1013,8 22 34 0,0
21.09.2018 16:00:00 17,2 6,4 17,5 17,5 17,8 35 19 66 35 WSW 1013,4 15 35 0,0
21.09.2018 15:00:00 17,4 4,3 18,2 17,3 17,8 39 21 69 37 W 1012,8 14 53 0,0
21.09.2018 14:00:00 16,1 5,7 16,9 17,2 17,8 36 20 60 33 W 1012,1 19 45 0,0
21.09.2018 13:00:00 15,0 6,5 15,6 17,3 17,8 38 20 64 34 W 1011,2 28 6 0,0
21.09.2018 12:00:00 15,0 7,0 15,7 17,3 17,8 43 23 63 34 W 1010,2 30 33 0,0
21.09.2018 11:00:00 14,8 10,8 12,6 17,3 17,8 28 15 49 26 W 1009,0 34 23 2,0
21.09.2018 10:00:00 15,5 10,7 14,3 17,5 17,8 29 16 44 24 WSW 1007,2 26 35 0,0
21.09.2018 09:00:00 14,9 10,9 13,6 17,7 17,8 24 13 47 26 WSW 1006,2 35 33 0,0
21.09.2018 08:00:00 14,5 12,9 13,5 18,0 17,8 25 13 80 43 SW 1005,2 33 0 1,2
21.09.2018 07:00:00 17,3 15,3 15,9 18,1 17,8 38 20 61 33 SSW 1003,5 14 0 0,2
21.09.2018 06:00:00 17,0 14,8 15,9 18,2 17,8 37 20 63 34 S 1003,1 19 0 0,4
21.09.2018 05:00:00 18,9 13,3 18,4 18,3 17,8 39 21 58 32 S 1003,7 54 0 0,0
21.09.2018 04:00:00 18,9 13,1 18,5 18,4 17,8 32 18 49 26 S 1004,2 59 0 0,0
21.09.2018 03:00:00 19,1 13,3 18,5 18,5 17,8 26 14 45 24 S 1005,6 58 0 0,0
21.09.2018 02:00:00 19,6 13,3 18,8 18,7 17,8 27 15 45 24 S 1007,0 56 0 0,0
21.09.2018 01:00:00 19,9 13,4 19,0 18,9 17,8 26 14 40 21 S 1007,6 59 0 0,0
21.09.2018 00:00:00 19,9 13,1 18,9 19,1 17,8 21 11 34 18 S 1008,4 60 0 0,0
20.09.2018 23:00:00 20,1 13,1 19,3 19,4 17,8 21 11 34 18 S 1009,1 60 0 0,0
20.09.2018 22:00:00 20,5 13,2 19,3 19,7 17,8 17 9 26 14 S 1009,9 58 0 0,0
20.09.2018 21:00:00 20,4 13,4 19,7 20,0 17,8 16 9 28 15 SSE 1010,5 57 0 0,0
20.09.2018 20:00:00 22,3 13,1 21,5 20,3 17,8 18 10 41 22 S 1011,0 49 0 0,0
20.09.2018 19:00:00 23,7 13,3 23,8 20,5 17,8 22 12 41 22 S 1011,7 36 3 0,0
20.09.2018 18:00:00 24,1 12,7 24,5 20,5 17,7 26 14 47 26 S 1012,3 38 6 0,0
20.09.2018 17:00:00 24,9 13,4 26,2 20,3 17,8 34 18 48 26 S 1012,9 21 33 0,0
20.09.2018 16:00:00 24,4 13,3 25,4 19,8 17,7 30 16 47 25 S 1013,9 24 18 0,0
20.09.2018 15:00:00 23,2 13,1 25,6 19,4 17,7 27 15 46 25 S 1014,8 24 24 0,0
20.09.2018 14:00:00 22,9 13,4 25,7 18,6 17,7 29 15 46 25 S 1015,8 11 58 0,0
20.09.2018 13:00:00 21,4 13,8 22,0 18,1 17,7 29 15 41 22 SSW 1016,4 0,2 30 0,0
20.09.2018 12:00:00 20,1 14,0 20,4 17,6 17,7 24 13 39 21 SSW 1017,1 35 18 0,0
20.09.2018 11:00:00 18,8 14,1 19,3 17,2 17,7 22 12 37 20 SSW 1017,2 21 54 0,0
20.09.2018 10:00:00 17,7 14,0 17,9 16,9 17,7 23 12 39 21 SSW 1017,5 29 60 0,0
20.09.2018 09:00:00 16,5 13,6 14,9 16,8 17,7 18 10 28 15 SSW 1017,4 34 41 0,0
20.09.2018 08:00:00 14,2 12,6 13,2 17,0 17,7 9 5 14 8 S 1017,4 31 0 0,0
20.09.2018 07:00:00 14,4 12,4 13,3 17,2 17,8 6 4 14 8 SSE 1017,1 32 0 0,0
20.09.2018 06:00:00 14,8 12,3 13,9 17,4 17,7 10 5 16 9 S 1017,1 37 0 0,0
20.09.2018 05:00:00 15,5 12,4 14,6 17,6 17,7 11 6 21 11 S 1017,4 38 0 0,0

tt = temperature
td = dewpoint
tt 5cm = temperature 5cm
tt -20cm = temperature -20cm
tt -100cm = temperature -100cm
ff = wind speed
fx = gusts
dd = wind direction
ppp = reduced air pressure
vv = visibility
sd = sunshine duration
rr = precipitation

Next stations